{"data":{"norad_id":66744,"epoch":"2026-09-19T22:19:08.905152Z","epoch_age_seconds":166725,"freshness":"FRESH","line1":"1 66744U 25276CG  26262.92996418  .00001413  00000+0  71392-4 0  9999","line2":"2 66744  97.4122 334.4572 0003967  53.0763 307.0834 15.18685742 44786","mean_motion":15.18685742,"eccentricity":0.0003967,"inclination_deg":97.4122,"raan_deg":334.4572,"arg_perigee_deg":53.0763,"mean_anomaly_deg":307.0834,"bstar":7.1392e-5,"rev_number":4478,"period_min":94.818826579857,"perigee_km":507.07914987848,"apogee_km":512.54404829699,"semimajor_km":6887.9485990877,"source":"CELESTRAK","updated_at":"2026-09-21T09:00:16.176811Z"}}